Location: Leiter
(44.7178°N, 106.2687°W)
Time: 22:10:47
(UTC+00:00)

CUBESAT XI-V - Pass Details

Date: 06 July 2022
Orbit: 667 x 690 km, 98.1° (Epoch: 07 August)

Event Time Altitude Azimuth Distance (km) Brightness Sun altitude
Exits shadow 07:36:06 10° 109° (ESE) 2,088 ? -22.3°
Maximum altitude 07:39:21 20° 63° (ENE) 1,541 ? -22.3°
Drops below altitude 10° 07:42:40 10° 17° (NNE) 2,105 ? -22.2°
Sets 07:45:23 0° 1° (N) 3,022 ? -22.1°
